TimePST,TemperatureF,Dew PointF,Humidity,Sea Level PressureIn,VisibilityMPH,Wind Direction,Wind SpeedMPH,Gust SpeedMPH,PrecipitationIn,Events,Conditions,WindDirDegrees,DateUTC
12:15 AM,32.0,17.6,55,30.08,10.0,ENE,9.2,-,N/A,,Clear,70,2013-01-23 08:15:00
12:35 AM,30.2,17.6,60,30.08,10.0,East,9.2,-,N/A,,Clear,90,2013-01-23 08:35:00
12:55 AM,32.0,17.6,55,30.07,10.0,East,8.1,-,N/A,,Clear,90,2013-01-23 08:55:00
1:15 AM,32.0,17.6,55,30.07,10.0,East,9.2,-,N/A,,Clear,90,2013-01-23 09:15:00
1:35 AM,32.0,17.6,55,30.06,10.0,East,9.2,-,N/A,,Clear,90,2013-01-23 09:35:00
1:55 AM,32.0,15.8,51,30.07,10.0,East,9.2,-,N/A,,Clear,90,2013-01-23 09:55:00
2:15 AM,33.8,15.8,48,30.06,10.0,ESE,10.4,-,N/A,,Clear,110,2013-01-23 10:15:00
2:35 AM,33.8,15.8,48,30.06,10.0,East,10.4,-,N/A,,Clear,80,2013-01-23 10:35:00
2:55 AM,32.0,17.6,55,30.05,10.0,ENE,11.5,-,N/A,,Clear,70,2013-01-23 10:55:00
3:15 AM,33.8,15.8,48,30.05,10.0,East,8.1,-,N/A,,Clear,80,2013-01-23 11:15:00
3:35 AM,32.0,14.0,48,30.05,10.0,East,11.5,17.3,N/A,,Clear,80,2013-01-23 11:35:00
3:55 AM,32.0,15.8,51,30.04,10.0,ENE,6.9,18.4,N/A,,Clear,60,2013-01-23 11:55:00
4:15 AM,33.8,14.0,44,30.04,10.0,East,10.4,21.9,N/A,,Clear,80,2013-01-23 12:15:00
4:35 AM,32.0,14.0,48,30.03,10.0,ENE,10.4,-,N/A,,Clear,60,2013-01-23 12:35:00
4:55 AM,32.0,14.0,48,30.02,10.0,NE,6.9,-,N/A,,Clear,50,2013-01-23 12:55:00
5:15 AM,32.0,14.0,48,30.02,10.0,NE,6.9,-,N/A,,Clear,50,2013-01-23 13:15:00
5:35 AM,32.0,15.8,51,30.01,10.0,ENE,6.9,-,N/A,,Clear,70,2013-01-23 13:35:00
5:55 AM,33.8,14.0,44,30.01,10.0,ENE,6.9,-,N/A,,Clear,70,2013-01-23 13:55:00
6:15 AM,35.6,14.0,41,30.01,10.0,ESE,6.9,-,N/A,,Clear,110,2013-01-23 14:15:00
6:35 AM,33.8,14.0,44,30.01,10.0,ESE,6.9,16.1,N/A,,Clear,120,2013-01-23 14:35:00
7:15 AM,35.6,14.0,41,30.01,10.0,ENE,6.9,-,N/A,,Clear,70,2013-01-23 15:15:00
7:35 AM,35.6,14.0,41,30.01,10.0,NNE,6.9,-,N/A,,Clear,30,2013-01-23 15:35:00
7:55 AM,37.4,14.0,38,30.01,10.0,East,4.6,-,N/A,,Clear,90,2013-01-23 15:55:00
8:15 AM,35.6,14.0,41,30.01,10.0,ENE,5.8,-,N/A,,Clear,60,2013-01-23 16:15:00
8:35 AM,37.4,14.0,38,30.02,10.0,ENE,3.5,-,N/A,,Clear,60,2013-01-23 16:35:00
8:55 AM,37.4,14.0,38,30.02,10.0,ENE,6.9,-,N/A,,Clear,70,2013-01-23 16:55:00
9:15 AM,37.4,15.8,41,30.03,10.0,East,4.6,-,N/A,,Mostly Cloudy,80,2013-01-23 17:15:00
9:35 AM,46.4,19.4,34,30.05,10.0,South,21.9,32.2,N/A,,Overcast,190,2013-01-23 17:35:00
9:55 AM,41.0,28.4,61,30.01,7.0,South,27.6,34.5,N/A,Rain,Rain,170,2013-01-23 17:55:00
10:15 AM,46.4,32.0,57,30.00,10.0,South,12.7,25.3,N/A,,Overcast,180,2013-01-23 18:15:00
10:35 AM,42.8,28.4,57,30.01,10.0,Calm,Calm,-,N/A,,Overcast,0,2013-01-23 18:35:00
10:55 AM,42.8,28.4,57,30.01,10.0,ESE,4.6,9.2,N/A,,Overcast,110,2013-01-23 18:55:00
11:15 AM,48.2,30.2,50,29.99,10.0,SE,12.7,26.5,N/A,,Light Drizzle,140,2013-01-23 19:15:00
11:35 AM,50.0,30.2,47,29.97,10.0,SE,5.8,-,N/A,,Overcast,130,2013-01-23 19:35:00
11:55 AM,46.4,30.2,53,29.96,10.0,NE,11.5,-,N/A,,Overcast,40,2013-01-23 19:55:00
12:15 PM,46.4,32.0,57,29.95,10.0,ENE,6.9,-,N/A,,Overcast,70,2013-01-23 20:15:00
12:35 PM,46.4,32.0,57,29.94,10.0,East,5.8,-,N/A,,Overcast,100,2013-01-23 20:35:00
12:55 PM,46.4,32.0,57,29.94,10.0,NE,4.6,17.3,N/A,,Overcast,40,2013-01-23 20:55:00
1:15 PM,50.0,26.6,40,29.94,10.0,SSW,3.5,-,N/A,,Overcast,210,2013-01-23 21:15:00
1:35 PM,50.0,26.6,40,29.93,10.0,SE,4.6,-,N/A,,Overcast,130,2013-01-23 21:35:00
1:55 PM,51.8,21.2,30,29.93,10.0,South,9.2,16.1,N/A,,Overcast,180,2013-01-23 21:55:00
2:15 PM,51.8,19.4,28,29.92,10.0,SSE,13.8,26.5,N/A,,Overcast,150,2013-01-23 22:15:00
2:35 PM,50.0,17.6,28,29.92,10.0,South,16.1,21.9,N/A,,Overcast,170,2013-01-23 22:35:00
2:55 PM,50.0,17.6,28,29.93,10.0,South,4.6,16.1,N/A,,Overcast,190,2013-01-23 22:55:00
3:15 PM,50.0,17.6,28,29.92,10.0,South,10.4,-,N/A,,Overcast,170,2013-01-23 23:15:00
3:35 PM,50.0,17.6,28,29.94,10.0,South,13.8,24.2,N/A,,Overcast,170,2013-01-23 23:35:00
3:55 PM,50.0,17.6,28,29.93,10.0,SSE,20.7,28.8,N/A,,Overcast,160,2013-01-23 23:55:00
4:15 PM,50.0,17.6,28,29.93,10.0,South,19.6,28.8,N/A,,Overcast,170,2013-01-24 00:15:00
4:35 PM,50.0,17.6,28,29.94,10.0,South,13.8,25.3,N/A,,Overcast,190,2013-01-24 00:35:00
4:55 PM,50.0,17.6,28,29.93,10.0,South,18.4,33.4,N/A,,Overcast,170,2013-01-24 00:55:00
5:15 PM,50.0,17.6,28,29.94,10.0,South,15.0,27.6,N/A,,Overcast,180,2013-01-24 01:15:00
5:35 PM,50.0,17.6,28,29.93,10.0,SSW,16.1,19.6,N/A,,Overcast,200,2013-01-24 01:35:00
5:55 PM,48.2,17.6,30,29.94,10.0,West,8.1,23.0,N/A,,Overcast,270,2013-01-24 01:55:00
6:15 PM,46.4,19.4,34,29.95,10.0,West,8.1,-,N/A,,Overcast,270,2013-01-24 02:15:00
6:35 PM,46.4,19.4,34,29.95,10.0,WSW,10.4,-,N/A,,Overcast,250,2013-01-24 02:35:00
6:55 PM,46.4,19.4,34,29.96,10.0,West,12.7,-,N/A,,Overcast,270,2013-01-24 02:55:00
7:15 PM,48.2,19.4,32,29.96,10.0,West,10.4,19.6,N/A,,Overcast,260,2013-01-24 03:15:00
7:35 PM,48.2,19.4,32,29.96,10.0,SW,12.7,19.6,N/A,,Overcast,230,2013-01-24 03:35:00
7:55 PM,48.2,19.4,32,29.96,10.0,SW,13.8,21.9,N/A,,Overcast,220,2013-01-24 03:55:00
8:15 PM,48.2,21.2,34,29.97,10.0,WSW,18.4,28.8,N/A,,Overcast,240,2013-01-24 04:15:00
8:35 PM,46.4,23.0,40,30.01,10.0,SSW,10.4,24.2,N/A,,Overcast,210,2013-01-24 04:35:00
8:55 PM,46.4,28.4,50,30.03,10.0,SW,23.0,28.8,N/A,Rain,Rain,230,2013-01-24 04:55:00
9:15 PM,41.0,32.0,70,30.02,10.0,SSW,18.4,-,N/A,,Light Drizzle,200,2013-01-24 05:15:00
9:35 PM,41.0,32.0,70,30.03,10.0,South,18.4,24.2,N/A,,Overcast,190,2013-01-24 05:35:00
9:55 PM,41.0,33.8,76,30.04,10.0,South,20.7,28.8,N/A,,Overcast,180,2013-01-24 05:55:00
10:15 PM,41.0,33.8,76,30.04,10.0,SSW,13.8,21.9,N/A,,Overcast,200,2013-01-24 06:15:00
10:35 PM,42.8,33.8,70,30.05,10.0,SSW,15.0,21.9,N/A,,Overcast,200,2013-01-24 06:35:00
10:55 PM,42.8,33.8,70,30.06,10.0,WSW,12.7,-,N/A,,Overcast,240,2013-01-24 06:55:00
11:15 PM,42.8,33.8,70,30.07,10.0,WSW,5.8,-,N/A,,Overcast,240,2013-01-24 07:15:00
11:35 PM,42.8,33.8,70,30.07,10.0,SSW,9.2,-,N/A,,Overcast,210,2013-01-24 07:35:00
11:55 PM,42.8,33.8,70,30.07,10.0,SW,8.1,-,N/A,,Overcast,220,2013-01-24 07:55:00